Location: Rzeszów
(50.0412°N, 21.9991°E)
Time: 12:47:12
(UTC+01:00)

ISS - Visible Passes

Search period start: 24 March 2019 00:00
Search period end: 03 April 2019 01:00
Orbit: 408 x 411 km, 51.6° (Epoch: 24 March)

Date Brightness Start Highest point End Pass type
(mag) Time Alt. Az. Time Alt. Az. Time Alt. Az.
24 Mar -3.9 19:33:22 10° WSW 19:36:39 66° SSE 19:37:09 55° ESE visible
25 Mar -3.4 18:42:52 10° SW 18:46:03 45° SSE 18:48:52 13° E visible
25 Mar -2.6 20:19:18 10° W 20:21:38 41° WNW 20:21:38 41° WNW visible
26 Mar -3.8 19:28:35 10° WSW 19:31:54 82° N 19:33:13 34° ENE visible
26 Mar -0.8 21:05:20 10° WNW 21:05:59 15° WNW 21:05:59 15° WNW visible
27 Mar -3.8 18:37:55 10° WSW 18:41:13 78° SSE 18:44:32 10° ENE visible
27 Mar -3.1 20:14:37 10° W 20:17:27 55° NW 20:17:27 55° NW visible
28 Mar -3.6 19:23:52 10° W 19:27:10 66° N 19:28:51 26° ENE visible
28 Mar -1.1 21:00:35 10° WNW 21:01:37 19° WNW 21:01:37 19° WNW visible
29 Mar -3.6 18:33:06 10° W 18:36:25 74° N 18:39:44 10° ENE visible
29 Mar -3.6 20:09:51 10° WNW 20:12:58 68° NNW 20:12:58 68° NNW visible
30 Mar -3.6 19:19:07 10° W 19:22:24 64° N 19:24:16 23° E visible
30 Mar -1.4 20:55:45 10° WNW 20:57:01 21° W 20:57:01 21° W visible
31 Mar -3.5 19:28:20 10° W 19:31:38 64° N 19:34:55 10° E visible
31 Mar -3.9 21:05:01 10° WNW 21:08:18 84° SW 21:08:18 84° SW visible
01 Apr -3.8 20:14:16 10° WNW 20:17:35 78° NNE 20:19:35 22° E visible
01 Apr -1.5 21:50:59 10° W 21:52:20 20° W 21:52:20 20° W visible
02 Apr -3.5 21:00:08 10° WNW 21:03:22 50° SSW 21:03:36 49° S visible
